CFG7KJ LFMN-EDDH

Flight info

Callsign CFG7KJ
Flight time 1h 44m
Altitude 38000
Route IRMAR DCT KINES DCT VANAS DCT MOBLO DCT UBIMA DCT GILIR DCT PENDU DCT UZCUX DCT SOSAD DCT OBOKA/N0444F370 DCT BASUM/N0447F380 Y850 PIXUR/N0446F370 Y850 MUBZI M105 RIBSO RIBSO3P
Aircraft A319/M-SDE3FGHIRWY/LB1

Departure

Time 2026-05-04 18:03
Airport Nice-Côte d'Azur Airport (LFMN)

Arrival

Time 2026-05-04 19:48
Airport Hamburg Helmut Schmidt Airport (EDDH)
Time Latitude Longitude Altitude Speed Heading
2026-05-04 17:44 43.66119 7.20678 23 ft 0 kts 260°
2026-05-04 17:52 43.66121 7.20694 22 ft 3 kts 261°
2026-05-04 17:52 43.66124 7.20722 23 ft 3 kts 261°
2026-05-04 17:52 43.66127 7.20747 24 ft 3 kts 254°
2026-05-04 17:52 43.66135 7.20772 23 ft 3 kts 226°
2026-05-04 17:53 43.66149 7.20787 26 ft 3 kts 184°
2026-05-04 17:53 43.66157 7.20787 26 ft 0 kts 171°
2026-05-04 17:55 43.66154 7.20788 26 ft 3 kts 171°
2026-05-04 17:56 43.66094 7.20801 22 ft 11 kts 171°
2026-05-04 17:56 43.66005 7.20821 22 ft 15 kts 171°
2026-05-04 17:56 43.65894 7.20846 22 ft 17 kts 171°
2026-05-04 17:56 43.65772 7.20874 21 ft 19 kts 171°
2026-05-04 17:57 43.65633 7.20906 20 ft 21 kts 170°
2026-05-04 17:57 43.65491 7.20937 22 ft 20 kts 171°
2026-05-04 17:57 43.65372 7.20958 19 ft 15 kts 189°
2026-05-04 17:57 43.65296 7.20883 19 ft 14 kts 224°
2026-05-04 17:58 43.65225 7.20785 18 ft 15 kts 224°
2026-05-04 17:58 43.65160 7.20695 20 ft 12 kts 225°
2026-05-04 17:58 43.65126 7.20650 21 ft 4 kts 222°
2026-05-04 17:58 43.65123 7.20646 21 ft 1 kts 223°
2026-05-04 17:59 43.65118 7.20640 21 ft 2 kts 222°
2026-05-04 17:59 43.65102 7.20617 21 ft 5 kts 226°
2026-05-04 17:59 43.64961 7.20421 24 ft 18 kts 224°
2026-05-04 18:00 43.64863 7.20287 22 ft 21 kts 224°
2026-05-04 18:00 43.64786 7.20189 22 ft 11 kts 206°
2026-05-04 18:00 43.64760 7.20185 22 ft 0 kts 179°
2026-05-04 18:02 43.64713 7.20306 24 ft 12 kts 56°
2026-05-04 18:02 43.64737 7.20339 24 ft 0 kts 44°
2026-05-04 18:03 43.64738 7.20340 24 ft 2 kts 44°
2026-05-04 18:03 43.64870 7.20522 28 ft 70 kts 45°
2026-05-04 18:03 43.65423 7.21285 52 ft 145 kts 46°
2026-05-04 18:03 43.66137 7.22339 663 ft 155 kts 54°
2026-05-04 18:04 43.66417 7.23243 1135 ft 158 kts 79°
2026-05-04 18:04 43.66190 7.24716 1775 ft 170 kts 118°
2026-05-04 18:04 43.64275 7.26979 3169 ft 185 kts 132°
2026-05-04 18:05 43.63521 7.28088 3762 ft 192 kts 126°
2026-05-04 18:05 43.62690 7.29638 4442 ft 207 kts 123°
2026-05-04 18:05 43.61693 7.31135 5262 ft 219 kts 141°
2026-05-04 18:05 43.60231 7.31944 5961 ft 239 kts 175°
2026-05-04 18:06 43.57290 7.30208 8183 ft 231 kts 212°
2026-05-04 18:06 43.56006 7.28868 9166 ft 233 kts 222°
2026-05-04 18:06 43.55170 7.26934 10098 ft 241 kts 250°
2026-05-04 18:07 43.54997 7.24623 10967 ft 248 kts 273°
2026-05-04 18:07 43.55587 7.22360 11833 ft 257 kts 301°
2026-05-04 18:07 43.56674 7.20390 12750 ft 258 kts 304°
2026-05-04 18:07 43.57785 7.18440 13655 ft 259 kts 305°
2026-05-04 18:08 43.58904 7.16486 14448 ft 261 kts 304°
2026-05-04 18:08 43.60045 7.14519 15181 ft 265 kts 308°
2026-05-04 18:08 43.61471 7.12855 15875 ft 275 kts 324°
2026-05-04 18:08 43.63302 7.11715 16139 ft 303 kts 339°
2026-05-04 18:09 43.67608 7.09839 16537 ft 350 kts 340°
2026-05-04 18:09 43.72452 7.07721 16935 ft 389 kts 340°
2026-05-04 18:10 43.75062 7.06575 17500 ft 396 kts 340°
2026-05-04 18:10 43.77713 7.05406 18164 ft 401 kts 340°
2026-05-04 18:10 43.80384 7.04227 18771 ft 405 kts 339°
2026-05-04 18:10 43.83077 7.03035 19397 ft 408 kts 339°
2026-05-04 18:11 43.85793 7.01826 19956 ft 411 kts 339°
2026-05-04 18:11 43.88531 7.00601 20588 ft 415 kts 339°
2026-05-04 18:11 43.91297 6.99366 21192 ft 418 kts 339°
2026-05-04 18:11 43.94077 6.98128 21815 ft 421 kts 339°
2026-05-04 18:12 43.96883 6.96880 22416 ft 424 kts 339°
2026-05-04 18:12 43.99705 6.95622 22998 ft 427 kts 339°
2026-05-04 18:12 44.02541 6.94357 23568 ft 430 kts 339°
2026-05-04 18:12 44.05359 6.93089 24025 ft 432 kts 339°
2026-05-04 18:13 44.08227 6.91784 24486 ft 435 kts 338°
2026-05-04 18:13 44.11115 6.90464 24920 ft 438 kts 338°
2026-05-04 18:13 44.17117 6.88559 25767 ft 450 kts 351°
2026-05-04 18:14 44.20247 6.88102 26175 ft 452 kts 350°
2026-05-04 18:14 44.23387 6.87644 26589 ft 455 kts 350°
2026-05-04 18:14 44.26549 6.87172 26982 ft 459 kts 350°
2026-05-04 18:15 44.32802 6.86220 27720 ft 464 kts 349°
2026-05-04 18:15 44.39264 6.85235 28517 ft 470 kts 349°
2026-05-04 18:15 44.41884 6.84839 28781 ft 472 kts 349°
2026-05-04 18:16 44.45115 6.84348 29131 ft 475 kts 349°
2026-05-04 18:16 44.48397 6.83848 29511 ft 477 kts 349°
2026-05-04 18:16 44.51714 6.83353 29869 ft 480 kts 350°
2026-05-04 18:17 44.58397 6.82370 30549 ft 485 kts 350°
2026-05-04 18:17 44.61743 6.81870 30990 ft 483 kts 350°
2026-05-04 18:17 44.68414 6.80857 31884 ft 480 kts 349°
2026-05-04 18:18 44.71726 6.80346 32368 ft 478 kts 349°
2026-05-04 18:18 44.75028 6.79828 32829 ft 477 kts 349°
2026-05-04 18:18 44.78320 6.79300 33291 ft 475 kts 349°
2026-05-04 18:18 44.81607 6.78811 33753 ft 475 kts 350°
2026-05-04 18:19 44.88199 6.78252 34599 ft 474 kts 353°
2026-05-04 18:19 44.91490 6.78103 34991 ft 474 kts 353°
2026-05-04 18:19 44.94787 6.77971 35364 ft 473 kts 353°
2026-05-04 18:20 44.98075 6.77820 35706 ft 472 kts 353°
2026-05-04 18:20 45.01357 6.77646 36027 ft 471 kts 353°
2026-05-04 18:20 45.04586 6.77460 36358 ft 471 kts 353°
2026-05-04 18:20 45.07859 6.77252 36712 ft 470 kts 352°
2026-05-04 18:21 45.10846 6.77057 37071 ft 469 kts 352°
2026-05-04 18:21 45.14110 6.76839 37425 ft 468 kts 352°
2026-05-04 18:21 45.17355 6.76612 37750 ft 468 kts 352°
2026-05-04 18:21 45.20616 6.76383 38057 ft 468 kts 352°
2026-05-04 18:22 45.27119 6.75937 38117 ft 467 kts 352°
2026-05-04 18:22 45.33608 6.75502 38108 ft 467 kts 352°
2026-05-04 18:23 45.40055 6.75080 38101 ft 467 kts 352°
2026-05-04 18:23 45.46549 6.74645 38102 ft 467 kts 352°
2026-05-04 18:24 45.52985 6.74211 38093 ft 467 kts 352°
2026-05-04 18:24 45.59479 6.73773 38089 ft 467 kts 352°
2026-05-04 18:25 45.65884 6.73328 38087 ft 468 kts 352°
2026-05-04 18:25 45.72278 6.72886 38082 ft 469 kts 352°
2026-05-04 18:26 45.78757 6.72434 38084 ft 469 kts 352°
2026-05-04 18:26 45.85271 6.71988 38077 ft 468 kts 352°
2026-05-04 18:27 45.91784 6.71545 38087 ft 469 kts 353°
2026-05-04 18:27 45.98299 6.71104 38080 ft 468 kts 353°
2026-05-04 18:28 46.04825 6.70664 38075 ft 468 kts 353°
2026-05-04 18:28 46.11292 6.70127 38066 ft 465 kts 347°
2026-05-04 18:29 46.17391 6.67825 38063 ft 457 kts 336°
2026-05-04 18:29 46.23452 6.64866 38059 ft 457 kts 336°
2026-05-04 18:30 46.32352 6.60542 38057 ft 458 kts 336°
2026-05-04 18:31 46.38356 6.57627 38056 ft 458 kts 336°
2026-05-04 18:31 46.44374 6.54688 38060 ft 459 kts 336°
2026-05-04 18:32 46.50402 6.51726 38056 ft 459 kts 336°
2026-05-04 18:32 46.56365 6.48782 38055 ft 459 kts 336°
2026-05-04 18:33 46.62406 6.45806 38054 ft 459 kts 336°
2026-05-04 18:33 46.68453 6.42822 38052 ft 459 kts 336°
2026-05-04 18:34 46.74513 6.39820 38046 ft 460 kts 336°
2026-05-04 18:34 46.80511 6.36849 38047 ft 460 kts 336°
2026-05-04 18:35 46.86515 6.33861 38037 ft 460 kts 336°
2026-05-04 18:35 46.92550 6.30845 38042 ft 460 kts 336°
2026-05-04 18:36 46.98626 6.27805 38034 ft 460 kts 336°
2026-05-04 18:36 47.04690 6.24759 38031 ft 461 kts 336°
2026-05-04 18:37 47.10465 6.20966 38030 ft 456 kts 329°
2026-05-04 18:37 47.16152 6.16860 38028 ft 457 kts 329°
2026-05-04 18:38 47.21864 6.12738 38028 ft 457 kts 329°
2026-05-04 18:38 47.27573 6.08603 38023 ft 457 kts 329°
2026-05-04 18:39 47.33642 6.05606 38026 ft 467 kts 348°
2026-05-04 18:39 47.40166 6.05794 38013 ft 476 kts
2026-05-04 18:40 47.46576 6.08512 38010 ft 479 kts 14°
2026-05-04 18:40 47.52922 6.11388 38014 ft 479 kts 15°
2026-05-04 18:41 47.59282 6.14282 38015 ft 479 kts 15°
2026-05-04 18:41 47.65655 6.17180 38015 ft 479 kts 15°
2026-05-04 18:42 47.71981 6.20059 38015 ft 479 kts 15°
2026-05-04 18:42 47.78390 6.22975 38016 ft 478 kts 15°
2026-05-04 18:43 47.84532 6.25778 38015 ft 478 kts 15°
2026-05-04 18:43 47.90897 6.28695 38017 ft 478 kts 15°
2026-05-04 18:44 47.97251 6.31620 38020 ft 478 kts 15°
2026-05-04 18:44 48.03594 6.34550 38031 ft 477 kts 15°
2026-05-04 18:45 48.09913 6.37467 38026 ft 477 kts 15°
2026-05-04 18:45 48.16251 6.40400 38021 ft 477 kts 15°
2026-05-04 18:46 48.22597 6.43342 38018 ft 476 kts 15°
2026-05-04 18:46 48.28736 6.46200 38024 ft 476 kts 15°
2026-05-04 18:47 48.35060 6.49152 38016 ft 476 kts 15°
2026-05-04 18:47 48.41243 6.52055 38020 ft 476 kts 15°
2026-05-04 18:48 48.47561 6.55022 38013 ft 475 kts 15°
2026-05-04 18:48 48.53875 6.57992 38014 ft 475 kts 15°
2026-05-04 18:49 48.60199 6.60968 38009 ft 475 kts 16°
2026-05-04 18:49 48.66508 6.63946 38011 ft 475 kts 16°
2026-05-04 18:50 48.72823 6.66938 38007 ft 475 kts 16°
2026-05-04 18:50 48.79089 6.69923 38019 ft 475 kts 16°
2026-05-04 18:51 48.85401 6.72946 38018 ft 475 kts 16°
2026-05-04 18:51 48.91702 6.75955 38007 ft 475 kts 16°
2026-05-04 18:52 48.98007 6.78972 38008 ft 475 kts 16°
2026-05-04 18:52 49.03265 6.81494 38000 ft 475 kts 16°
2026-05-04 18:53 49.09568 6.84523 38002 ft 475 kts 16°
2026-05-04 18:53 49.15882 6.87572 38003 ft 475 kts 16°
2026-05-04 18:54 49.22140 6.90607 38000 ft 476 kts 16°
2026-05-04 18:54 49.28469 6.93689 38002 ft 476 kts 15°
2026-05-04 18:55 49.34939 6.95691 38003 ft 474 kts
2026-05-04 18:55 49.44718 6.98285 37993 ft 475 kts
2026-05-04 18:56 49.51238 7.00021 37995 ft 475 kts
2026-05-04 18:56 49.57755 7.01751 37994 ft 476 kts
2026-05-04 18:57 49.64282 7.03456 37995 ft 476 kts
2026-05-04 18:57 49.70818 7.05202 38000 ft 476 kts
2026-05-04 18:58 49.77305 7.06994 38004 ft 476 kts
2026-05-04 18:58 49.83561 7.08727 38003 ft 477 kts
2026-05-04 18:59 49.90100 7.10503 38009 ft 477 kts
2026-05-04 18:59 49.96641 7.12257 38011 ft 477 kts
2026-05-04 19:00 50.03186 7.14035 38004 ft 478 kts
2026-05-04 19:00 50.09732 7.15826 38002 ft 478 kts
2026-05-04 19:01 50.16273 7.17616 38005 ft 478 kts
2026-05-04 19:01 50.22817 7.19431 38017 ft 478 kts
2026-05-04 19:02 50.29224 7.22421 38012 ft 480 kts 18°
2026-05-04 19:02 50.35477 7.25885 38007 ft 480 kts 18°
2026-05-04 19:03 50.41778 7.29393 37998 ft 480 kts 18°
2026-05-04 19:03 50.48053 7.32883 38000 ft 480 kts 18°
2026-05-04 19:04 50.54180 7.36298 38001 ft 480 kts 18°
2026-05-04 19:04 50.60378 7.39765 37999 ft 481 kts 18°
2026-05-04 19:05 50.66039 7.42796 37988 ft 480 kts 17°
2026-05-04 19:05 50.72357 7.46291 37998 ft 481 kts 19°
2026-05-04 19:06 50.78614 7.49991 37995 ft 481 kts 19°
2026-05-04 19:06 50.84867 7.53625 38000 ft 481 kts 18°
2026-05-04 19:07 50.91175 7.57190 38002 ft 481 kts 18°
2026-05-04 19:07 50.97493 7.60753 38004 ft 481 kts 18°
2026-05-04 19:08 51.03765 7.64321 38012 ft 481 kts 18°
2026-05-04 19:08 51.09953 7.67874 38010 ft 481 kts 18°
2026-05-04 19:09 51.16247 7.71491 38008 ft 481 kts 18°
2026-05-04 19:09 51.22521 7.75113 37999 ft 481 kts 18°
2026-05-04 19:10 51.28789 7.78728 37997 ft 480 kts 18°
2026-05-04 19:10 51.34936 7.82295 37994 ft 480 kts 18°
2026-05-04 19:11 51.41211 7.85945 37994 ft 480 kts 18°
2026-05-04 19:11 51.47234 7.89461 37996 ft 479 kts 18°
2026-05-04 19:12 51.56222 7.94708 37997 ft 479 kts 18°
2026-05-04 19:13 51.62178 7.98199 37993 ft 479 kts 18°
2026-05-04 19:13 51.68375 8.01843 37991 ft 478 kts 18°
2026-05-04 19:14 51.73632 8.04950 37989 ft 478 kts 18°
2026-05-04 19:14 51.79856 8.08653 37991 ft 477 kts 18°
2026-05-04 19:15 51.86092 8.12342 37993 ft 477 kts 18°
2026-05-04 19:15 51.92084 8.15897 37994 ft 477 kts 18°
2026-05-04 19:16 51.98311 8.19618 37995 ft 476 kts 18°
2026-05-04 19:16 52.04533 8.23348 37993 ft 476 kts 18°
2026-05-04 19:17 52.10755 8.27074 37973 ft 476 kts 18°
2026-05-04 19:17 52.13858 8.28938 37403 ft 475 kts 18°
2026-05-04 19:17 52.16920 8.30786 36618 ft 477 kts 18°
2026-05-04 19:17 52.20034 8.32667 35799 ft 479 kts 17°
2026-05-04 19:18 52.23173 8.34564 34972 ft 483 kts 17°
2026-05-04 19:18 52.26316 8.36464 34152 ft 486 kts 17°
2026-05-04 19:18 52.29473 8.38375 33204 ft 490 kts 17°
2026-05-04 19:18 52.32670 8.40315 32264 ft 492 kts 17°
2026-05-04 19:19 52.35880 8.42264 31368 ft 492 kts 17°
2026-05-04 19:19 52.39097 8.44223 30463 ft 493 kts 17°
2026-05-04 19:19 52.42312 8.46191 29462 ft 494 kts 18°
2026-05-04 19:19 52.45531 8.48167 28387 ft 494 kts 18°
2026-05-04 19:20 52.48749 8.50149 27671 ft 491 kts 18°
2026-05-04 19:20 52.51928 8.52109 26936 ft 486 kts 18°
2026-05-04 19:20 52.55049 8.54030 26239 ft 479 kts 18°
2026-05-04 19:20 52.58164 8.55942 25535 ft 473 kts 19°
2026-05-04 19:21 52.61238 8.57827 24843 ft 467 kts 19°
2026-05-04 19:21 52.64256 8.59683 24287 ft 459 kts 19°
2026-05-04 19:21 52.67192 8.61496 24020 ft 444 kts 19°
2026-05-04 19:21 52.70074 8.63280 23365 ft 440 kts 19°
2026-05-04 19:22 52.72937 8.65048 22708 ft 436 kts 19°
2026-05-04 19:22 52.75708 8.66760 22132 ft 431 kts 19°
2026-05-04 19:22 52.78388 8.68872 21589 ft 427 kts 32°
2026-05-04 19:22 52.80630 8.72041 21126 ft 424 kts 46°
2026-05-04 19:23 52.82638 8.75600 20954 ft 423 kts 46°
2026-05-04 19:23 52.84654 8.79163 20999 ft 423 kts 46°
2026-05-04 19:23 52.86664 8.82715 20988 ft 423 kts 46°
2026-05-04 19:23 52.88669 8.86268 20991 ft 423 kts 46°
2026-05-04 19:24 52.90681 8.89838 21000 ft 423 kts 46°
2026-05-04 19:24 52.92685 8.93403 21002 ft 424 kts 46°
2026-05-04 19:24 52.94693 8.96978 21000 ft 424 kts 46°
2026-05-04 19:24 52.96702 9.00559 20998 ft 424 kts 46°
2026-05-04 19:25 52.98691 9.04114 20991 ft 424 kts 46°
2026-05-04 19:25 53.00697 9.07711 20988 ft 424 kts 46°
2026-05-04 19:25 53.02704 9.11319 20997 ft 424 kts 46°
2026-05-04 19:25 53.04708 9.14919 20995 ft 424 kts 46°
2026-05-04 19:26 53.06712 9.18521 20981 ft 424 kts 46°
2026-05-04 19:26 53.08702 9.22094 20645 ft 420 kts 46°
2026-05-04 19:26 53.10691 9.25670 20122 ft 417 kts 46°
2026-05-04 19:26 53.12648 9.29207 19636 ft 414 kts 46°
2026-05-04 19:27 53.14571 9.32692 19294 ft 402 kts 46°
2026-05-04 19:27 53.16445 9.36089 18740 ft 395 kts 46°
2026-05-04 19:27 53.18290 9.39433 18127 ft 390 kts 45°
2026-05-04 19:27 53.20076 9.42674 17421 ft 385 kts 46°
2026-05-04 19:28 53.21879 9.45951 16731 ft 381 kts 46°
2026-05-04 19:28 53.23641 9.49159 16049 ft 378 kts 46°
2026-05-04 19:28 53.25405 9.52375 15402 ft 374 kts 46°
2026-05-04 19:28 53.27175 9.55604 14750 ft 370 kts 46°
2026-05-04 19:29 53.28883 9.58727 14127 ft 367 kts 46°
2026-05-04 19:29 53.30593 9.61860 13624 ft 359 kts 46°
2026-05-04 19:29 53.32250 9.64898 13201 ft 349 kts 46°
2026-05-04 19:29 53.33871 9.67870 12624 ft 344 kts 46°
2026-05-04 19:30 53.35361 9.70602 12066 ft 341 kts 46°
2026-05-04 19:30 53.36966 9.73546 11463 ft 338 kts 46°
2026-05-04 19:30 53.38545 9.76446 10873 ft 336 kts 47°
2026-05-04 19:30 53.40056 9.79230 10382 ft 331 kts 47°
2026-05-04 19:31 53.41578 9.82041 10258 ft 313 kts 47°
2026-05-04 19:31 53.43023 9.84713 9941 ft 305 kts 47°
2026-05-04 19:31 53.44441 9.87339 9564 ft 302 kts 47°
2026-05-04 19:31 53.45711 9.89690 9218 ft 300 kts 47°
2026-05-04 19:32 53.47106 9.92274 8831 ft 298 kts 47°
2026-05-04 19:32 53.48492 9.94848 8439 ft 296 kts 47°
2026-05-04 19:32 53.49872 9.97407 8037 ft 294 kts 46°
2026-05-04 19:32 53.51173 9.99820 7652 ft 292 kts 46°
2026-05-04 19:33 53.52536 10.02353 7254 ft 290 kts 47°
2026-05-04 19:33 53.53880 10.04861 6861 ft 288 kts 47°
2026-05-04 19:33 53.55217 10.07360 6464 ft 286 kts 47°
2026-05-04 19:33 53.56544 10.09837 6050 ft 284 kts 47°
2026-05-04 19:34 53.57772 10.12388 5811 ft 275 kts 53°
2026-05-04 19:34 53.58852 10.14961 5677 ft 263 kts 54°
2026-05-04 19:34 53.59874 10.17431 5499 ft 253 kts 54°
2026-05-04 19:34 53.60867 10.19839 5232 ft 249 kts 54°
2026-05-04 19:35 53.61853 10.22234 5015 ft 248 kts 54°
2026-05-04 19:35 53.62754 10.24425 4990 ft 248 kts 54°
2026-05-04 19:35 53.63707 10.26745 5003 ft 248 kts 54°
2026-05-04 19:35 53.64688 10.29142 4997 ft 248 kts 54°
2026-05-04 19:36 53.65337 10.30733 4996 ft 248 kts 54°
2026-05-04 19:36 53.66739 10.33763 5002 ft 248 kts 50°
2026-05-04 19:36 53.67825 10.36020 4994 ft 248 kts 50°
2026-05-04 19:36 53.68913 10.38282 4980 ft 248 kts 49°
2026-05-04 19:37 53.69647 10.39812 4975 ft 248 kts 49°
2026-05-04 19:37 53.70733 10.42076 4976 ft 248 kts 49°
2026-05-04 19:37 53.71819 10.44344 4979 ft 248 kts 49°
2026-05-04 19:37 53.72893 10.46588 4980 ft 248 kts 49°
2026-05-04 19:38 53.73974 10.48856 4981 ft 248 kts 50°
2026-05-04 19:38 53.75060 10.51135 4980 ft 248 kts 49°
2026-05-04 19:38 53.76141 10.53410 4976 ft 248 kts 49°
2026-05-04 19:38 53.77223 10.55690 4980 ft 248 kts 50°
2026-05-04 19:39 53.78354 10.57892 4975 ft 247 kts 38°
2026-05-04 19:39 53.79856 10.59198 4987 ft 242 kts 12°
2026-05-04 19:39 53.81490 10.59191 4976 ft 233 kts 339°
2026-05-04 19:39 53.82765 10.57840 4984 ft 226 kts 308°
2026-05-04 19:40 53.83411 10.55494 4985 ft 221 kts 276°
2026-05-04 19:40 53.83397 10.52896 4981 ft 221 kts 265°
2026-05-04 19:40 53.83267 10.50306 4981 ft 221 kts 264°
2026-05-04 19:40 53.83129 10.47712 4980 ft 221 kts 264°
2026-05-04 19:41 53.82989 10.45151 4984 ft 221 kts 264°
2026-05-04 19:41 53.82847 10.42556 4980 ft 221 kts 264°
2026-05-04 19:41 53.82679 10.39970 4979 ft 221 kts 258°
2026-05-04 19:41 53.82040 10.37631 4981 ft 223 kts 234°
2026-05-04 19:42 53.81052 10.35594 4984 ft 224 kts 232°
2026-05-04 19:42 53.80059 10.33564 4982 ft 224 kts 232°
2026-05-04 19:42 53.79065 10.31524 4789 ft 224 kts 232°
2026-05-04 19:42 53.78074 10.29490 4523 ft 223 kts 232°
2026-05-04 19:43 53.77087 10.27466 4219 ft 223 kts 232°
2026-05-04 19:43 53.76106 10.25454 3921 ft 223 kts 232°
2026-05-04 19:43 53.75116 10.23428 3624 ft 222 kts 232°
2026-05-04 19:43 53.74133 10.21418 3327 ft 222 kts 232°
2026-05-04 19:44 53.73154 10.19416 3021 ft 220 kts 232°
2026-05-04 19:44 53.72202 10.17473 2738 ft 208 kts 232°
2026-05-04 19:44 53.71305 10.15642 2483 ft 196 kts 232°
2026-05-04 19:44 53.70459 10.13917 2213 ft 184 kts 231°
2026-05-04 19:45 53.69669 10.12306 1957 ft 172 kts 232°
2026-05-04 19:45 53.68929 10.10800 1747 ft 161 kts 232°
2026-05-04 19:45 53.68250 10.09417 1539 ft 150 kts 232°
2026-05-04 19:45 53.67595 10.08083 1339 ft 146 kts 232°
2026-05-04 19:46 53.66949 10.06770 1141 ft 144 kts 232°
2026-05-04 19:46 53.66331 10.05514 950 ft 144 kts 232°
2026-05-04 19:46 53.65694 10.04217 745 ft 143 kts 233°
2026-05-04 19:46 53.65057 10.02933 529 ft 142 kts 231°
2026-05-04 19:47 53.64465 10.01718 357 ft 140 kts 233°
2026-05-04 19:47 53.63836 10.00450 157 ft 141 kts 232°
2026-05-04 19:47 53.63261 9.99299 48 ft 128 kts 233°
2026-05-04 19:47 53.62787 9.98316 43 ft 72 kts 230°
2026-05-04 19:48 53.62544 9.97827 41 ft 31 kts 227°
2026-05-04 19:48 53.62441 9.97832 43 ft 11 kts 137°
2026-05-04 19:48 53.62436 9.97844 44 ft 4 kts 128°
2026-05-04 19:48 53.62441 9.97986 47 ft 14 kts 76°
2026-05-04 19:49 53.62482 9.98129 47 ft 15 kts 53°
2026-05-04 19:49 53.62551 9.98269 47 ft 17 kts 49°
2026-05-04 19:49 53.62637 9.98443 47 ft 21 kts 50°
2026-05-04 19:49 53.62734 9.98635 47 ft 22 kts 50°
2026-05-04 19:50 53.62821 9.98814 47 ft 17 kts 52°
2026-05-04 19:50 53.62896 9.98964 47 ft 18 kts 49°
2026-05-04 19:50 53.62978 9.99133 47 ft 19 kts 50°
2026-05-04 19:50 53.63065 9.99316 47 ft 21 kts 52°
2026-05-04 19:51 53.63149 9.99515 46 ft 20 kts 55°
2026-05-04 19:51 53.63230 9.99683 49 ft 18 kts 47°
2026-05-04 19:51 53.63319 9.99842 49 ft 19 kts 51°
2026-05-04 19:51 53.63406 10.00016 49 ft 19 kts 50°
2026-05-04 19:52 53.63410 10.00183 47 ft 14 kts 123°
2026-05-04 19:52 53.63324 10.00233 49 ft 14 kts 176°
2026-05-04 19:52 53.63253 10.00245 49 ft 7 kts 163°
2026-05-04 19:52 53.63244 10.00315 49 ft 7 kts 88°
2026-05-04 19:53 53.63245 10.00356 49 ft 0 kts 85°